Location: Aufkirchen
(47.9603°N, 11.3653°E)
Time: 10:34:29
(UTC+01:00)

Tiros 1 - Pass Details

Date: 03 December 2020
Orbit: 630 x 663 km, 48.4° (Epoch: 21 January)

Event Time Altitude Azimuth Distance (km) Brightness Sun altitude
Rises 19:37:01 0° 285° (WNW) 2,989 11.6 -31.6°
Reaches altitude 10° 19:39:35 10° 275° (W) 2,070 10.6 -32.0°
Enters shadow 19:42:40 27° 240° (WSW) 1,242 9.0 -32.6°
Maximum altitude 19:43:45 30° 215° (SW) 1,157 - -32.7°
Drops below altitude 10° 19:47:53 10° 154° (SSE) 2,044 - -33.4°
Sets 19:50:24 0° 143° (SE) 2,946 - -33.9°
